Regional Weather Roundup
Issued by NWS

Home | Current Version | Previous Version | Graphics & Text | Print | Product List | Glossary Off
Versions: 1 2 3 4 5 6 7 8 9 10 11 12 13 14 15 16 17 18 19 20 21 22 23 24 25 26 27

000
ASUS45 KTFX 240510
RWRMT
MONTANA REGIONAL WEATHER ROUNDUP
NATIONAL WEATHER SERVICE GREAT FALLS MT
1100 PM MDT SAT SEP 23 2017

NOTE: "FAIR" INDICATES FEW OR NO CLOUDS BELOW 12000 FEET WITH NO
SIGNIFICANT WEATHER AND/OR OBSTRUCTIONS TO VISIBILITY.

MTZ001>007-043-240600-
WEST OF THE DIVIDE

CITY           SKY/WX    TMP DP  RH WIND       PRES   REMARKS
KALISPELL      CLOUDY    43  40  89 CALM      30.12S
MISSOULA       CLEAR     41  36  82 N7        30.12S
BUTTE          CLOUDY    32  30  92 CALM      30.12S
MULLAN PASS    PTCLDY    35  31  85 W3        30.12F
ANACONDA         N/A     37  28  70 CALM      30.11S
DEER LODGE       N/A     41  32  70 N3        30.13S
EUREKA           N/A     46  41  81 CALM      30.09S
HAMILTON         N/A     43  37  81 CALM      30.11F
LIBBY            N/A     46  39  76 S5        30.08F
$$

MTZ008-052>055-240600-
SOUTHWEST MONTANA

CITY           SKY/WX    TMP DP  RH WIND       PRES   REMARKS
BOZEMAN        CLOUDY    43  36  76 S6        30.10S
DILLON         CLOUDY    41  28  60 NE6       30.08S
W YELLOWSTONE  CLOUDY    36  28  75 NE9G16    30.06F WCI  29
ENNIS          CLOUDY    39  34  81 N9        30.12S
THREE FORKS      N/A     44  35  70 CALM      30.08S
$$

MTZ009-010-012-014-046-048-049-054-240600-
EAST SLOPES AND CENTRAL MONTANA

CITY           SKY/WX    TMP DP  RH WIND       PRES   REMARKS
CUT BANK       CLEAR     35  32  88 NW7       30.07S WCI  29
GREAT FALLS    PTCLDY    37  30  75 S8        30.08F WCI  31
MALMSTROM AFB  CLEAR     36  32  85 S5        30.09S
HELENA         CLOUDY    43  33  68 W6        30.09F
BOWMANS CRNR     N/A     37  30  75 W6        30.07S
CHOTEAU          N/A     36  32  87 CALM      30.09S
FAIRFIELD        N/A     39  31  71 MISG      30.07S
POWER            N/A     36  31  83 SE3       30.07S
RAYNESFORD       N/A     34  30  85 CALM      30.10S
ULM              N/A     39  33  77 CALM      30.09S
$$

MTZ011-013-016-021-045-047-050-051-240600-
NORTH CENTRAL MONTANA

CITY           SKY/WX    TMP DP  RH WIND       PRES   REMARKS
HAVRE          PTCLDY    38  36  92 SW6       30.10S
LEWISTOWN      CLOUDY    41  39  93 E7        30.10F
N BAR RANCH    MOCLDY    36  34  93 W6        30.13S WCI  31
CHINOOK          N/A     43  41  93 E6        30.10S
DENTON           N/A     42  39  89 SW3       30.07S
GEYSER           N/A     37  31  80 W7        30.09S WCI  31
JUDITH GAP     MOCLDY    39  37  92 S8        30.10F
WINIFRED         N/A     39  36  90 SE6       30.09S
$$

MTZ017>020-022>027-061-062-240600-
NORTHEAST MONTANA

CITY           SKY/WX    TMP DP  RH WIND       PRES   REMARKS
GLASGOW        CLOUDY    47  38  71 E3        30.12F
JORDAN           N/A     46  40  79 CALM      30.12S
SIDNEY         LGT RAIN  45  43  93 CALM      30.15R
WOLF POINT     CLOUDY    47  43  86 CALM      30.14F
MALTA          PTCLDY    39  37  93 NE5       30.13R
PLENTYWOOD       N/A     45  41  87 CALM      30.13S
POPLAR           N/A     46  43  87 CALM      30.14S
$$

MTZ028>42-056>058-240600-
SOUTHCENTRAL AND SOUTHEAST MONTANA

CITY           SKY/WX    TMP DP  RH WIND       PRES   REMARKS
BAKER          LGT RAIN  43  41  93 N6        30.10S
BILLINGS       CLOUDY    42  39  89 N6        30.11S
LIVINGSTON     CLOUDY    42  36  79 CALM      30.09S
MILES CITY     CLOUDY    43  41  93 N6        30.13R
BIG TIMBER     CLOUDY    41  36  81 CALM      30.12F
HARLOWTON      CLOUDY    41  39  93 MISG      30.10S
LAUREL           N/A     41  37  87 NW5       30.12R
$$

REGIONAL REPORTS...DAKOTAS

CITY           SKY/WX    TMP DP  RH WIND       PRES   REMARKS
WILLISTON      LGT RAIN  46  43  89 N3        30.13R
MINOT          LGT RAIN  48  46  93 NW8       30.09R
DICKINSON      LGT RAIN  45  44  97 NE8       30.08S
BEACH          DRIZZLE   43  43 100 N5        30.15S
CROSBY         MOCLDY    45  45 100 N3        30.11F
TIOGA          LGT RAIN  43  43 100 N6        30.12R
BISMARCK       LGT RAIN  49  48  97 N10       30.05F FOG
GRAND FORKS    LGT RAIN  54  53  97 N10       30.01R
FARGO          RAIN      56  55  97 N8        29.98R FOG
BUFFALO SD       N/A     45  43  93 NE13      29.99F
$$

REGIONAL REPORTS...WYOMING/IDAHO/WASHINGTON

CITY           SKY/WX    TMP DP  RH WIND       PRES   REMARKS
GILLETTE       CLOUDY    41  41 100 N14       30.04F FOG
SHERIDAN       LGT RAIN  40  40 100 W3        30.10S
BUFFALO WY     LGT RAIN  38  35  89 N8        30.09R
CODY           CLOUDY    39  34  82 NW3       30.10S
IDAHO FALLS    CLOUDY    39  31  72 N10       30.00S
SALMON         CLOUDY    44  32  62 S7        30.09S
BOISE          CLEAR     49  35  58 W8        30.00F
SPOKANE        CLOUDY    55  41  59 S6        30.10R
$$

REGIONAL REPORTS...ALBERTA

CITY           SKY/WX    TMP DP  RH WIND       PRES   REMARKS
EDMONTON       PTCLDY    43  37  81 MISG      30.03S
CALGARY        PTCLDY    37  30  75 S7        30.06F
LETHBRIDGE     CLEAR     30  27  86 SW5       30.08S
MEDICINE HAT   CLOUDY    46  37  71 E7        30.09R
$$

REGIONAL REPORTS...SASKATCHEWAN

CITY           SKY/WX    TMP DP  RH WIND       PRES   REMARKS
SWIFT CURRENT    N/A     41  37  87 S9        30.12R
REGINA         MOCLDY    43  37  81 SE3       30.16S
SASKATOON      MOCLDY    45  41  87 NE2       30.16S
$$




USA.gov is the U.S. government's official web portal to all federal, state and local government web resources and services.